timestamp,wind_dir_avg,wind_spd_max_dir,wind_spd_avg,wind_spd_gust,battery_voltage,lat,long
2018-03-01 00:00:00+00:00,55.0,54.0,5.38,6.07,,47.59359,-54.27349
2018-03-01 00:10:00+00:00,56.0,57.0,5.65,6.51,,47.59359,-54.27349
2018-03-01 00:20:00+00:00,55.0,57.0,6.03,6.59,,47.59359,-54.27349
2018-03-01 00:30:00+00:00,51.0,50.0,5.54,6.12,,47.59359,-54.27349
2018-03-01 00:40:00+00:00,43.0,45.0,4.87,5.36,,47.59359,-54.27349
2018-03-01 00:50:00+00:00,36.0,37.0,4.36,4.72,,47.59359,-54.27349
2018-03-01 01:00:00+00:00,37.0,36.0,5.46,6.05,,47.59359,-54.27349
2018-03-01 01:10:00+00:00,35.0,36.0,4.72,5.24,,47.59359,-54.27349
2018-03-01 01:20:00+00:00,30.0,32.0,4.01,4.49,,47.59359,-54.27349
2018-03-01 01:30:00+00:00,23.0,27.0,3.89,4.46,,47.59359,-54.27349
2018-03-01 01:40:00+00:00,26.0,31.0,3.96,5.22,,47.59359,-54.27349
2018-03-01 01:50:00+00:00,35.0,38.0,4.57,5.32,,47.59359,-54.27349
2018-03-01 02:00:00+00:00,39.0,38.0,4.32,4.83,,47.59359,-54.27349
2018-03-01 02:10:00+00:00,27.0,24.0,3.72,4.28,,47.59359,-54.27349
2018-03-01 02:20:00+00:00,31.0,29.0,2.85,3.6,,47.59359,-54.27349
2018-03-01 02:30:00+00:00,33.0,37.0,3.88,4.55,,47.59359,-54.27349
2018-03-01 02:40:00+00:00,38.0,40.0,4.05,4.38,,47.59359,-54.27349
2018-03-01 02:50:00+00:00,41.0,41.0,3.92,4.22,,47.59359,-54.27349
2018-03-01 03:00:00+00:00,43.0,43.0,3.79,4.02,,47.59359,-54.27349
2018-03-01 03:10:00+00:00,41.0,44.0,3.95,4.33,,47.59359,-54.27349
2018-03-01 03:20:00+00:00,38.0,38.0,3.42,3.91,,47.59359,-54.27349
2018-03-01 03:30:00+00:00,34.0,43.0,3.67,4.17,,47.59359,-54.27349
2018-03-01 03:40:00+00:00,37.0,39.0,4.56,4.94,,47.59359,-54.27349
2018-03-01 03:50:00+00:00,37.0,35.0,5.48,5.99,,47.59359,-54.27349
2018-03-01 04:00:00+00:00,38.0,37.0,4.6,5.06,,47.59359,-54.27349
2018-03-01 04:10:00+00:00,29.0,32.0,4.11,4.64,,47.59359,-54.27349
2018-03-01 04:20:00+00:00,20.0,24.0,4.53,5.17,,47.59359,-54.27349
2018-03-01 04:30:00+00:00,20.0,21.0,5.22,6.02,,47.59359,-54.27349
2018-03-01 04:40:00+00:00,16.0,20.0,5.67,6.2,,47.59359,-54.27349
2018-03-01 04:50:00+00:00,18.0,17.0,5.77,6.62,,47.59359,-54.27349
2018-03-01 05:00:00+00:00,13.0,21.0,5.33,6.24,,47.59359,-54.27349
2018-03-01 05:10:00+00:00,13.0,14.0,4.45,5.14,,47.59359,-54.27349
2018-03-01 05:20:00+00:00,9.0,3.0,4.49,5.53,,47.59359,-54.27349
2018-03-01 05:30:00+00:00,12.0,12.0,5.1,5.6,,47.59359,-54.27349
2018-03-01 05:40:00+00:00,11.0,14.0,4.79,5.37,,47.59359,-54.27349
2018-03-01 05:50:00+00:00,17.0,19.0,5.18,5.62,,47.59359,-54.27349
2018-03-01 06:00:00+00:00,12.0,10.0,4.57,5.22,,47.59359,-54.27349
2018-03-01 06:10:00+00:00,9.0,11.0,4.98,5.71,,47.59359,-54.27349
2018-03-01 06:20:00+00:00,7.0,10.0,4.69,5.04,,47.59359,-54.27349
2018-03-01 06:30:00+00:00,3.0,9.0,5.1,5.67,,47.59359,-54.27349
2018-03-01 06:40:00+00:00,11.0,4.0,4.15,5.1,,47.59359,-54.27349
2018-03-01 06:50:00+00:00,16.0,21.0,5.32,5.82,,47.59359,-54.27349
2018-03-01 07:00:00+00:00,23.0,29.0,4.8,5.74,,47.59359,-54.27349
2018-03-01 07:10:00+00:00,21.0,16.0,5.85,6.94,,47.59359,-54.27349
2018-03-01 07:20:00+00:00,15.0,17.0,5.79,6.72,,47.59359,-54.27349
2018-03-01 07:30:00+00:00,14.0,11.0,5.98,6.77,,47.59359,-54.27349
2018-03-01 07:40:00+00:00,14.0,18.0,6.09,6.92,,47.59359,-54.27349
2018-03-01 07:50:00+00:00,13.0,12.0,6.74,7.45,,47.59359,-54.27349
2018-03-01 08:00:00+00:00,12.0,12.0,6.92,7.81,,47.59359,-54.27349
2018-03-01 08:10:00+00:00,18.0,21.0,6.64,7.38,,47.59359,-54.27349
2018-03-01 08:20:00+00:00,19.0,21.0,7.24,8.32,,47.59359,-54.27349
2018-03-01 08:30:00+00:00,12.0,15.0,6.45,7.58,,47.59359,-54.27349
2018-03-01 08:40:00+00:00,9.0,1.0,6.34,7.14,,47.59359,-54.27349
2018-03-01 08:50:00+00:00,10.0,15.0,6.36,7.24,,47.59359,-54.27349
2018-03-01 09:00:00+00:00,4.0,9.0,6.1,6.87,,47.59359,-54.27349
2018-03-01 09:10:00+00:00,8.0,7.0,6.92,8.22,,47.59359,-54.27349
2018-03-01 09:20:00+00:00,12.0,16.0,8.49,9.41,,47.59359,-54.27349
2018-03-01 09:30:00+00:00,9.0,19.0,7.88,8.78,,47.59359,-54.27349
2018-03-01 09:40:00+00:00,3.0,5.0,6.78,7.63,,47.59359,-54.27349
2018-03-01 09:50:00+00:00,7.0,7.0,6.76,7.54,,47.59359,-54.27349
2018-03-01 10:00:00+00:00,6.0,14.0,7.04,8.54,,47.59359,-54.27349
2018-03-01 10:10:00+00:00,5.0,2.0,6.3,6.92,,47.59359,-54.27349
2018-03-01 10:20:00+00:00,9.0,18.0,6.64,7.67,,47.59359,-54.27349
2018-03-01 10:30:00+00:00,8.0,10.0,6.11,6.98,,47.59359,-54.27349
2018-03-01 10:40:00+00:00,13.0,8.0,6.15,7.84,,47.59359,-54.27349
2018-03-01 10:50:00+00:00,22.0,21.0,9.58,10.78,,47.59359,-54.27349
2018-03-01 11:00:00+00:00,20.0,21.0,8.48,9.81,,47.59359,-54.27349
2018-03-01 11:10:00+00:00,12.0,17.0,7.59,8.51,,47.59359,-54.27349
2018-03-01 11:20:00+00:00,19.0,25.0,8.31,9.76,,47.59359,-54.27349
2018-03-01 11:30:00+00:00,4.0,2.0,6.77,7.46,,47.59359,-54.27349
2018-03-01 11:40:00+00:00,16.0,12.0,8.48,9.55,,47.59359,-54.27349
2018-03-01 11:50:00+00:00,17.0,13.0,7.16,8.34,,47.59359,-54.27349
2018-03-01 12:00:00+00:00,16.0,16.0,7.83,8.35,,47.59359,-54.27349
2018-03-01 12:10:00+00:00,18.0,16.0,9.02,10.17,,47.59359,-54.27349
2018-03-01 12:20:00+00:00,14.0,7.0,6.73,7.36,,47.59359,-54.27349
2018-03-01 12:30:00+00:00,11.0,9.0,8.16,9.13,,47.59359,-54.27349
2018-03-01 12:40:00+00:00,13.0,17.0,7.84,8.85,,47.59359,-54.27349
2018-03-01 12:50:00+00:00,3.0,5.0,7.02,8.43,,47.59359,-54.27349
2018-03-01 13:00:00+00:00,4.0,0.0,6.07,7.39,,47.59359,-54.27349
2018-03-01 13:10:00+00:00,4.0,0.0,7.76,8.92,,47.59359,-54.27349
2018-03-01 13:20:00+00:00,0.0,1.0,6.25,7.32,,47.59359,-54.27349
2018-03-01 13:30:00+00:00,4.0,4.0,8.38,9.83,,47.59359,-54.27349
2018-03-01 13:40:00+00:00,6.0,7.0,6.93,8.55,,47.59359,-54.27349
2018-03-01 13:50:00+00:00,5.0,7.0,7.74,8.59,,47.59359,-54.27349
2018-03-01 14:00:00+00:00,7.0,3.0,8.21,9.65,,47.59359,-54.27349
2018-03-01 14:10:00+00:00,10.0,12.0,6.96,7.99,,47.59359,-54.27349
2018-03-01 14:20:00+00:00,8.0,6.0,8.41,9.38,,47.59359,-54.27349
2018-03-01 14:30:00+00:00,12.0,13.0,7.38,8.45,,47.59359,-54.27349
2018-03-01 14:40:00+00:00,10.0,7.0,8.28,9.56,,47.59359,-54.27349
2018-03-01 14:50:00+00:00,15.0,12.0,6.77,7.74,,47.59359,-54.27349
2018-03-01 15:00:00+00:00,10.0,10.0,7.91,8.86,,47.59359,-54.27349
2018-03-01 15:10:00+00:00,8.0,14.0,6.92,7.62,,47.59359,-54.27349
2018-03-01 15:20:00+00:00,13.0,12.0,6.45,7.56,,47.59359,-54.27349
2018-03-01 15:30:00+00:00,3.0,358.0,6.61,7.3,,47.59359,-54.27349
2018-03-01 15:40:00+00:00,7.0,7.0,7.49,8.34,,47.59359,-54.27349
2018-03-01 15:50:00+00:00,9.0,10.0,8.12,8.86,,47.59359,-54.27349
2018-03-01 16:00:00+00:00,14.0,6.0,7.32,8.86,,47.59359,-54.27349
2018-03-01 16:10:00+00:00,19.0,20.0,7.66,9.49,,47.59359,-54.27349
2018-03-01 16:20:00+00:00,22.0,18.0,8.81,10.48,,47.59359,-54.27349
2018-03-01 16:30:00+00:00,18.0,22.0,8.01,9.42,,47.59359,-54.27349
2018-03-01 16:40:00+00:00,18.0,22.0,9.17,11.21,,47.59359,-54.27349
2018-03-01 16:50:00+00:00,16.0,14.0,9.28,10.69,,47.59359,-54.27349
2018-03-01 17:00:00+00:00,18.0,20.0,7.63,8.95,,47.59359,-54.27349
2018-03-01 17:10:00+00:00,17.0,19.0,8.29,9.5,,47.59359,-54.27349
2018-03-01 17:20:00+00:00,17.0,15.0,7.22,7.94,,47.59359,-54.27349
2018-03-01 17:30:00+00:00,26.0,30.0,6.65,7.61,,47.59359,-54.27349
2018-03-01 17:40:00+00:00,27.0,27.0,7.19,8.96,,47.59359,-54.27349
2018-03-01 17:50:00+00:00,32.0,37.0,6.62,7.46,,47.59359,-54.27349
2018-03-01 18:00:00+00:00,29.0,33.0,5.43,6.07,,47.59359,-54.27349
2018-03-01 18:10:00+00:00,34.0,43.0,4.85,5.58,,47.59359,-54.27349
2018-03-01 18:20:00+00:00,29.0,45.0,4.58,6.56,,47.59359,-54.27349
2018-03-01 18:30:00+00:00,41.0,51.0,5.49,7.72,,47.59359,-54.27349
2018-03-01 18:40:00+00:00,44.0,48.0,6.48,8.48,,47.59359,-54.27349
2018-03-01 18:50:00+00:00,40.0,46.0,5.82,7.92,,47.59359,-54.27349
2018-03-01 19:00:00+00:00,28.0,40.0,5.61,7.64,,47.59359,-54.27349
2018-03-01 19:10:00+00:00,36.0,40.0,5.85,6.96,,47.59359,-54.27349
2018-03-01 19:20:00+00:00,35.0,42.0,5.56,6.28,,47.59359,-54.27349
2018-03-01 19:30:00+00:00,34.0,36.0,5.37,6.21,,47.59359,-54.27349
2018-03-01 19:40:00+00:00,31.0,33.0,5.03,5.63,,47.59359,-54.27349
2018-03-01 19:50:00+00:00,28.0,24.0,4.96,5.55,,47.59359,-54.27349
2018-03-01 20:00:00+00:00,30.0,36.0,4.5,5.37,,47.59359,-54.27349
2018-03-01 20:10:00+00:00,31.0,31.0,4.54,5.2,,47.59359,-54.27349
2018-03-01 20:20:00+00:00,33.0,35.0,5.03,5.59,,47.59359,-54.27349
2018-03-01 20:30:00+00:00,29.0,29.0,4.69,5.33,,47.59359,-54.27349
2018-03-01 20:40:00+00:00,30.0,26.0,4.74,5.72,,47.59359,-54.27349
2018-03-01 20:50:00+00:00,24.0,27.0,5.54,6.45,,47.59359,-54.27349
2018-03-01 21:00:00+00:00,21.0,19.0,5.53,6.47,,47.59359,-54.27349
2018-03-01 21:10:00+00:00,23.0,26.0,4.36,4.96,,47.59359,-54.27349
2018-03-01 21:20:00+00:00,23.0,28.0,4.55,5.43,,47.59359,-54.27349
2018-03-01 21:30:00+00:00,27.0,26.0,5.21,6.04,,47.59359,-54.27349
2018-03-01 21:40:00+00:00,25.0,28.0,4.58,5.19,,47.59359,-54.27349
2018-03-01 21:50:00+00:00,27.0,32.0,4.43,5.34,,47.59359,-54.27349
2018-03-01 22:00:00+00:00,29.0,30.0,5.13,5.86,,47.59359,-54.27349
2018-03-01 22:10:00+00:00,29.0,30.0,5.0,5.61,,47.59359,-54.27349
2018-03-01 22:20:00+00:00,32.0,33.0,5.49,6.09,,47.59359,-54.27349
2018-03-01 22:30:00+00:00,35.0,34.0,5.78,6.42,,47.59359,-54.27349
2018-03-01 22:40:00+00:00,33.0,29.0,5.41,6.12,,47.59359,-54.27349
2018-03-01 22:50:00+00:00,39.0,34.0,5.28,6.02,,47.59359,-54.27349
2018-03-01 23:00:00+00:00,48.0,46.0,5.86,6.44,,47.59359,-54.27349
2018-03-01 23:10:00+00:00,43.0,42.0,5.62,6.26,,47.59359,-54.27349
2018-03-01 23:20:00+00:00,42.0,42.0,5.28,5.94,,47.59359,-54.27349
2018-03-01 23:30:00+00:00,40.0,40.0,5.3,5.8,,47.59359,-54.27349
2018-03-01 23:40:00+00:00,45.0,48.0,4.41,4.66,,47.59359,-54.27349
2018-03-01 23:50:00+00:00,43.0,41.0,4.67,5.26,,47.59359,-54.27349
